Change the Weather History Date:

Wednesday, February 5, 2014

  Actual Average (KJWG) Record (KJWG)
Temperature  
Mean Temperature 16 °F -  
Max Temperature 23 °F 45 °F 78 °F (1963)
Min Temperature 8 °F 26 °F 0 °F (1989)
Degree Days  
Heating Degree Days 50    
Moisture  
Dew Point 6 °F    
Average Humidity 76    
Maximum Humidity 86    
Minimum Humidity 73    
Precipitation  
Precipitation 0.00 in - - ()
Sea Level Pressure  
Sea Level Pressure 30.50 in    
Wind  
Wind Speed 18 mph (North)    
Max Wind Speed 24 mph    
Max Gust Speed 32 mph    
Visibility 10 miles    
Events Snow    
Averages and records for this station are not official NWS values.
T = Trace of Precipitation, MM = Missing Value Source: NWS Daily Summary

Daily Weather History Graph

Daily Weather History Graph

Search for Another Location

Airport or City:

Trip Planner

Search our weather history database for the weather conditions in past years. The results will help you decide how hot, cold, wet, or windy it might be!

Date:

Astronomy

Feb. 05, 2014 Rise Set
Actual Time 7:31 AM CST 6:06 PM CST
Civil Twilight 7:04 AM CST 6:33 PM CST
Nautical Twilight 6:34 AM CST 7:03 PM CST
Astronomical Twilight 6:04 AM CST 7:33 PM CST
Moon 11:01 AM CST (2/5) No Moon Set
Length of Visible Light 11h 28m
Length of Day
10h 35m
Waxing Crescent, 39% of the Moon is Illuminated
Feb 5
Waxing Crescent
Feb 6
First Quarter
Feb 14
Full
Feb 22
Last Quarter
Mar 1
New

Hourly Weather History & Observations

Time (CST) Temp. Windchill Dew Point Humidity Pressure Visibility Wind Dir Wind Speed Gust Speed Precip Events Conditions
12:15 AM 23.0 °F 9.6 °F 19.4 °F 86% 30.24 in 10.0 mi North 16.1 mph 26.5 mph N/A   Overcast
12:35 AM 23.0 °F 6.9 °F 19.4 °F 86% 30.24 in 10.0 mi North 24.2 mph 29.9 mph N/A Snow Light Snow
12:55 AM 21.2 °F 5.6 °F 17.6 °F 86% 30.26 in 10.0 mi North 20.7 mph 27.6 mph N/A   Overcast
1:15 AM 19.4 °F 2.8 °F 15.8 °F 86% 30.28 in 10.0 mi North 21.9 mph 29.9 mph N/A Snow Light Snow
1:35 AM 19.4 °F 4.5 °F 14.0 °F 80% 30.29 in 10.0 mi North 17.3 mph 31.1 mph N/A   Overcast
1:55 AM 17.6 °F 1.3 °F 10.4 °F 73% 30.29 in 10.0 mi North 19.6 mph 32.2 mph N/A   Mostly Cloudy
2:15 AM 15.8 °F -2.7 °F 12.2 °F 86% 30.30 in 7.0 mi North 24.2 mph 31.1 mph N/A Snow Light Snow
2:35 AM 14.0 °F -4.7 °F 10.4 °F 86% 30.30 in 10.0 mi North 23.0 mph 29.9 mph N/A   Clear
2:55 AM 14.0 °F -2.5 °F 10.4 °F 86% 30.33 in 10.0 mi North 17.3 mph 27.6 mph N/A   Clear
3:15 AM 14.0 °F -3.0 °F 8.6 °F 79% 30.35 in 10.0 mi North 18.4 mph 27.6 mph N/A   Clear
3:35 AM 12.2 °F -4.3 °F 8.6 °F 85% 30.36 in 10.0 mi North 16.1 mph 23.0 mph N/A   Clear
3:55 AM 12.2 °F -6.7 °F 8.6 °F 85% 30.37 in 10.0 mi North 21.9 mph 27.6 mph N/A   Clear
4:15 AM 12.2 °F -5.3 °F 6.8 °F 79% 30.38 in 10.0 mi North 18.4 mph 23.0 mph N/A   Clear
4:35 AM 12.2 °F -3.1 °F 6.8 °F 79% 30.40 in 10.0 mi North 13.8 mph 23.0 mph N/A   Scattered Clouds
4:55 AM 12.2 °F -3.1 °F 6.8 °F 79% 30.41 in 10.0 mi North 13.8 mph 21.9 mph N/A   Scattered Clouds
5:15 AM 12.2 °F -3.1 °F 5.0 °F 73% 30.43 in 10.0 mi North 13.8 mph 23.0 mph N/A   Scattered Clouds
5:35 AM 10.4 °F -8.2 °F 5.0 °F 79% 30.43 in 10.0 mi North 19.6 mph 26.5 mph N/A   Scattered Clouds
5:55 AM 10.4 °F -7.2 °F 5.0 °F 79% 30.45 in 10.0 mi North 17.3 mph 23.0 mph N/A   Scattered Clouds
6:15 AM 10.4 °F -5.4 °F 5.0 °F 79% 30.49 in 10.0 mi North 13.8 mph 20.7 mph N/A   Clear
6:35 AM 10.4 °F -6.0 °F 5.0 °F 79% 30.50 in 10.0 mi NNW 15.0 mph 19.6 mph N/A   Clear
6:55 AM 10.4 °F -7.2 °F 5.0 °F 79% 30.50 in 10.0 mi North 17.3 mph 24.2 mph N/A   Scattered Clouds
7:15 AM 10.4 °F -7.2 °F 3.2 °F 73% 30.51 in 10.0 mi North 17.3 mph 27.6 mph N/A   Scattered Clouds
7:35 AM 8.6 °F -10.0 °F 3.2 °F 79% 30.52 in 10.0 mi North 18.4 mph 24.2 mph N/A   Clear
7:55 AM 8.6 °F -8.3 °F 3.2 °F 79% 30.52 in 10.0 mi North 15.0 mph 23.0 mph N/A   Clear
8:15 AM 8.6 °F -9.5 °F 3.2 °F 79% 30.52 in 10.0 mi North 17.3 mph 27.6 mph N/A   Clear
8:35 AM 10.4 °F -8.2 °F 3.2 °F 73% 30.55 in 10.0 mi North 19.6 mph 23.0 mph N/A   Clear
8:55 AM 10.4 °F -7.7 °F 3.2 °F 73% 30.55 in 10.0 mi North 18.4 mph - N/A   Clear
9:15 AM 10.4 °F -9.5 °F 3.2 °F 73% 30.55 in 10.0 mi North 23.0 mph 26.5 mph N/A   Clear
9:35 AM 10.4 °F -9.1 °F 3.2 °F 73% 30.56 in 10.0 mi North 21.9 mph 28.8 mph N/A   Clear
9:55 AM 10.4 °F -7.2 °F 5.0 °F 79% 30.56 in 10.0 mi North 17.3 mph 28.8 mph N/A   Unknown
10:15 AM 12.2 °F -7.1 °F 5.0 °F 73% 30.57 in 10.0 mi North 23.0 mph - N/A   Clear
10:35 AM 12.2 °F -4.8 °F 5.0 °F 73% 30.58 in 10.0 mi North 17.3 mph 26.5 mph N/A   Clear
10:55 AM 12.2 °F -6.3 °F 5.0 °F 73% 30.59 in 10.0 mi North 20.7 mph 25.3 mph N/A   Clear
11:15 AM 12.2 °F -5.3 °F 5.0 °F 73% 30.58 in 10.0 mi North 18.4 mph 26.5 mph N/A   Clear
11:35 AM 12.2 °F -3.7 °F 6.8 °F 79% 30.59 in 10.0 mi North 15.0 mph 26.5 mph N/A   Clear
11:55 AM 12.2 °F -2.5 °F 5.0 °F 73% 30.59 in 10.0 mi NNW 12.7 mph 25.3 mph N/A   Clear
12:15 PM 14.0 °F -2.0 °F 6.8 °F 73% 30.59 in 10.0 mi North 16.1 mph - N/A   Scattered Clouds
12:35 PM 14.0 °F -2.0 °F 8.6 °F 79% 30.59 in 10.0 mi North 16.1 mph 20.7 mph N/A   Scattered Clouds
12:55 PM 14.0 °F -0.8 °F 8.6 °F 79% 30.56 in 10.0 mi North 13.8 mph 21.9 mph N/A   Scattered Clouds
1:15 PM 14.0 °F -1.4 °F 8.6 °F 79% 30.55 in 10.0 mi North 15.0 mph 25.3 mph N/A   Unknown
1:35 PM 14.0 °F -2.5 °F 8.6 °F 79% 30.55 in 10.0 mi North 17.3 mph 23.0 mph N/A   Scattered Clouds
1:55 PM 14.0 °F -2.0 °F 8.6 °F 79% 30.54 in 10.0 mi North 16.1 mph 23.0 mph N/A   Scattered Clouds
2:15 PM 14.0 °F -2.0 °F 6.8 °F 73% 30.55 in 10.0 mi North 16.1 mph 19.6 mph N/A   Scattered Clouds
2:35 PM 14.0 °F 0.5 °F 6.8 °F 73% 30.56 in 10.0 mi North 11.5 mph 18.4 mph N/A   Scattered Clouds
2:55 PM 14.0 °F -0.8 °F 6.8 °F 73% 30.56 in 10.0 mi North 13.8 mph - N/A   Scattered Clouds
3:15 PM 14.0 °F -0.8 °F 6.8 °F 73% 30.56 in 10.0 mi North 13.8 mph - N/A   Scattered Clouds
3:35 PM 14.0 °F -2.0 °F 6.8 °F 73% 30.56 in 10.0 mi North 16.1 mph 21.9 mph N/A   Mostly Cloudy
3:55 PM 14.0 °F -0.8 °F 6.8 °F 73% 30.55 in 10.0 mi North 13.8 mph 18.4 mph N/A   Overcast
4:15 PM 14.0 °F -0.2 °F 6.8 °F 73% 30.55 in 10.0 mi North 12.7 mph 20.7 mph N/A   Overcast
4:35 PM 14.0 °F -1.4 °F 6.8 °F 73% 30.55 in 10.0 mi North 15.0 mph - N/A   Overcast
4:55 PM 14.0 °F -0.2 °F 6.8 °F 73% 30.56 in 10.0 mi NNE 12.7 mph 18.4 mph N/A   Overcast
5:15 PM 14.0 °F -1.4 °F 6.8 °F 73% 30.56 in 10.0 mi North 15.0 mph 19.6 mph N/A   Overcast
5:35 PM 12.2 °F -3.1 °F 5.0 °F 73% 30.56 in 10.0 mi North 13.8 mph - N/A   Overcast
5:55 PM 12.2 °F -4.3 °F 5.0 °F 73% 30.57 in 10.0 mi North 16.1 mph - N/A   Mostly Cloudy
6:15 PM 12.2 °F -4.8 °F 5.0 °F 73% 30.56 in 10.0 mi North 17.3 mph - N/A   Overcast
6:35 PM 12.2 °F -5.8 °F 5.0 °F 73% 30.57 in 10.0 mi North 19.6 mph 24.2 mph N/A   Overcast
6:55 PM 12.2 °F -4.8 °F 5.0 °F 73% 30.56 in 10.0 mi North 17.3 mph 23.0 mph N/A   Overcast
7:15 PM 12.2 °F -6.3 °F 5.0 °F 73% 30.56 in 10.0 mi NNE 20.7 mph 24.2 mph N/A   Overcast
7:35 PM 12.2 °F -5.8 °F 5.0 °F 73% 30.56 in 10.0 mi North 19.6 mph 23.0 mph N/A   Overcast
7:55 PM 12.2 °F -6.7 °F 5.0 °F 73% 30.56 in 10.0 mi NNE 21.9 mph 26.5 mph N/A   Overcast
8:15 PM 12.2 °F -4.3 °F 5.0 °F 73% 30.58 in 10.0 mi NNE 16.1 mph 23.0 mph N/A   Scattered Clouds
8:35 PM 10.4 °F -6.6 °F 5.0 °F 79% 30.56 in 10.0 mi NNE 16.1 mph 23.0 mph N/A   Mostly Cloudy
8:55 PM 10.4 °F -8.2 °F 3.2 °F 73% 30.59 in 10.0 mi North 19.6 mph 23.0 mph N/A   Scattered Clouds
9:15 PM 10.4 °F -6.6 °F 3.2 °F 73% 30.59 in 10.0 mi NNE 16.1 mph 20.7 mph N/A   Mostly Cloudy
9:35 PM 10.4 °F -7.2 °F 3.2 °F 73% 30.58 in 10.0 mi NNE 17.3 mph 24.2 mph N/A   Overcast
9:55 PM 10.4 °F -8.2 °F 3.2 °F 73% 30.58 in 10.0 mi NNE 19.6 mph 24.2 mph N/A   Overcast
10:15 PM 10.4 °F -7.2 °F 3.2 °F 73% 30.58 in 10.0 mi NNE 17.3 mph - N/A   Overcast
10:35 PM 10.4 °F -7.7 °F 3.2 °F 73% 30.58 in 10.0 mi NNE 18.4 mph - N/A   Overcast
10:55 PM 10.4 °F -7.7 °F 3.2 °F 73% 30.58 in 10.0 mi NNE 18.4 mph 21.9 mph N/A   Overcast
11:15 PM 10.4 °F -6.6 °F 3.2 °F 73% 30.58 in 10.0 mi NNE 16.1 mph 23.0 mph N/A   Overcast
11:35 PM 10.4 °F -6.0 °F 3.2 °F 73% 30.58 in 10.0 mi NNE 15.0 mph 21.9 mph N/A Snow Light Snow
11:55 PM 10.4 °F -7.2 °F 3.2 °F 73% 30.58 in 10.0 mi NNE 17.3 mph - N/A   Overcast